Weather History for Mattoon, IL

Change the Weather History Date:

Sunday, January 27, 2013

  Actual Average Record
Temperature  
Mean Temperature 33 °F 27 °F  
Max Temperature 42 °F 35 °F 64 °F (1999)
Min Temperature 24 °F 20 °F -7 °F (1963)
Degree Days  
Heating Degree Days 32 38  
Month to date heating degree days 985 1023  
Since 1 July heating degree days 2943 3126  
Cooling Degree Days 0 0  
Month to date cooling degree days 0 0  
Year to date cooling degree days 0 0  
Moisture  
Dew Point 32 °F    
Average Humidity 84    
Maximum Humidity 100    
Minimum Humidity 68    
Precipitation  
Precipitation 0.13 in 0.05 in 0.79 in (1949)
Month to date precipitation 1.71 1.97  
Year to date precipitation 1.71 1.97  
Sea Level Pressure  
Sea Level Pressure 30.13 in    
Wind  
Wind Speed 13 mph (SSE)    
Max Wind Speed 22 mph    
Max Gust Speed 33 mph    
Visibility 5 miles    
Events Rain    
T = Trace of Precipitation, MM = Missing Value Source: NWS Daily Summary

Daily Weather History Graph

Daily Weather History Graph

Search for Another Location

Airport:

Trip Planner

Search our weather history database for the weather conditions in past years. The results will help you decide how hot, cold, wet, or windy it might be!

Date:

Astronomy

Jan. 27, 2013 Rise Set
Actual Time 7:04 AM CST 5:07 PM CST
Civil Twilight 6:35 AM CST 5:36 PM CST
Nautical Twilight 6:03 AM CST 6:08 PM CST
Astronomical Twilight 5:31 AM CST 6:40 PM CST
Moon 6:01 PM CST (1/27) 6:57 AM CST (1/27)
Length of Visible Light 11h 00m
Length of Day
10h 03m
Full, 100% of the Moon is Illuminated
Jan 27
Full
Feb 3
Last Quarter
Feb 10
New
Feb 17
First Quarter
Feb 25
Full

Hourly Weather History & Observations

Time (CST) Temp. Windchill Dew Point Humidity Pressure Visibility Wind Dir Wind Speed Gust Speed Precip Events Conditions
1:53 AM 24.1 °F 16.0 °F 18.0 °F 77% 30.37 in 10.0 mi SE 6.9 mph - N/A   Clear
2:53 AM 24.1 °F 13.7 °F 18.0 °F 77% 30.35 in 10.0 mi SE 10.4 mph - N/A   Clear
3:53 AM 25.0 °F 15.5 °F 18.0 °F 75% 30.35 in 10.0 mi SE 9.2 mph - N/A   Clear
4:53 AM 25.0 °F 13.6 °F 18.0 °F 75% 30.32 in 10.0 mi SE 12.7 mph - N/A   Clear
5:53 AM 26.1 °F 15.6 °F 18.0 °F 71% 30.33 in 10.0 mi SSE 11.5 mph 20.7 mph N/A   Clear
6:53 AM 27.0 °F 17.3 °F 19.0 °F 72% 30.33 in 10.0 mi SSE 10.4 mph - N/A   Clear
8:53 AM 28.9 °F 17.7 °F 21.9 °F 75% 30.31 in 8.0 mi SSE 15.0 mph - N/A   Overcast
9:53 AM 30.9 °F 20.7 °F 21.9 °F 69% 30.31 in 9.0 mi SSE 13.8 mph - N/A   Overcast
10:53 AM 32.0 °F 23.0 °F 24.1 °F 73% 30.32 in 8.0 mi South 11.5 mph - N/A   Overcast
11:53 AM 33.1 °F 24.9 °F 25.0 °F 72% 30.25 in 7.0 mi SSE 10.4 mph 20.7 mph 0.00 in Rain Light Rain
12:53 PM 33.1 °F 24.4 °F 28.0 °F 82% 30.20 in 5.0 mi SSE 11.5 mph - 0.00 in Rain Light Rain
1:53 PM 33.1 °F 23.4 °F 30.0 °F 89% 30.16 in 5.0 mi SSE 13.8 mph - 0.01 in Rain Light Rain
2:40 PM 33.8 °F 23.9 °F 30.2 °F 87% 30.11 in 2.5 mi SSE 15.0 mph - 0.02 in Rain Light Rain
2:49 PM 33.8 °F 23.9 °F 30.2 °F 87% 30.10 in 3.0 mi SSE 15.0 mph 21.9 mph 0.02 in Rain Light Rain
2:53 PM 34.0 °F 22.7 °F 30.9 °F 89% 30.13 in 3.0 mi SSE 19.6 mph 26.5 mph 0.02 in Rain Light Rain
3:00 PM 33.8 °F 23.9 °F 30.2 °F 87% 30.10 in 2.0 mi SSE 15.0 mph 26.5 mph 0.01 in Rain Light Rain
3:07 PM 33.8 °F 23.2 °F 30.2 °F 87% 30.10 in 4.0 mi SSE 17.3 mph 23.0 mph 0.01 in Rain Light Rain
3:53 PM 35.1 °F 24.1 °F 32.0 °F 89% 30.12 in 5.0 mi SSE 19.6 mph 25.3 mph 0.01 in   Overcast
4:21 PM 33.8 °F 22.8 °F 32.0 °F 93% 30.08 in 3.0 mi SSE 18.4 mph - 0.00 in Rain Light Rain
4:26 PM 33.8 °F 23.9 °F 33.8 °F 100% 30.08 in 3.0 mi SSE 15.0 mph 24.2 mph 0.00 in Rain Light Rain
4:37 PM 33.8 °F 23.5 °F 33.8 °F 100% 30.08 in 3.0 mi SSE 16.1 mph - 0.01 in Rain Light Rain
4:53 PM 35.1 °F 25.2 °F 33.1 °F 92% 30.10 in 2.5 mi SSE 16.1 mph 23.0 mph 0.02 in Rain Light Rain
5:06 PM 35.6 °F 25.9 °F 33.8 °F 93% 30.08 in 4.0 mi SSE 16.1 mph 24.2 mph 0.01 in Rain Light Rain
5:53 PM 35.1 °F 26.4 °F 34.0 °F 96% 30.07 in 4.0 mi South 12.7 mph 26.5 mph 0.01 in   Overcast
6:53 PM 36.0 °F 25.3 °F 36.0 °F 100% 30.05 in 3.0 mi SSE 19.6 mph 33.4 mph 0.01 in Rain Light Rain
7:02 PM 35.6 °F 25.2 °F 35.6 °F 100% 30.02 in 2.5 mi SSE 18.4 mph 29.9 mph 0.01 in Rain Rain
7:23 PM 37.4 °F 27.5 °F 37.4 °F 100% 30.02 in 3.0 mi SSE 18.4 mph 25.3 mph 0.04 in Rain Light Rain
7:53 PM 37.9 °F 27.3 °F 37.0 °F 97% 30.03 in 3.0 mi SSE 21.9 mph 31.1 mph 0.05 in Rain Light Rain
8:41 PM 39.2 °F 32.0 °F 37.4 °F 93% 30.01 in 2.5 mi South 11.5 mph 26.5 mph 0.00 in   Overcast
8:53 PM 39.0 °F 31.0 °F 39.0 °F 100% 30.02 in 1.5 mi South 13.8 mph 19.6 mph 0.00 in   Overcast
9:17 PM 39.2 °F 30.8 °F 39.2 °F 100% 30.00 in 0.8 mi South 15.0 mph 23.0 mph N/A   Overcast
9:28 PM 39.2 °F 32.5 °F 39.2 °F 100% 30.01 in 1.2 mi South 10.4 mph 19.6 mph N/A   Overcast
9:44 PM 39.2 °F 32.5 °F 39.2 °F 100% 30.01 in 2.5 mi South 10.4 mph - N/A   Overcast
9:47 PM 39.2 °F 32.0 °F 39.2 °F 100% 30.02 in 3.0 mi South 11.5 mph 18.4 mph N/A   Overcast
9:53 PM 39.9 °F 33.4 °F 39.9 °F 100% 30.05 in 3.0 mi South 10.4 mph 18.4 mph N/A   Overcast
10:06 PM 41.0 °F 34.7 °F 39.2 °F 93% 30.02 in 4.0 mi South 10.4 mph - N/A   Overcast
10:53 PM 41.0 °F 33.5 °F 39.9 °F 96% 30.02 in 5.0 mi South 13.8 mph - 0.00 in   Overcast
11:06 PM 41.0 °F 33.5 °F 39.2 °F 93% 30.01 in 5.0 mi South 13.8 mph 23.0 mph 0.00 in Rain Light Rain
11:45 PM 42.8 °F 36.6 °F 41.0 °F 93% 30.01 in 6.0 mi South 11.5 mph - 0.00 in   Overcast
11:53 PM 42.1 °F 36.1 °F 41.0 °F 96% 30.03 in 6.0 mi South 10.4 mph 17.3 mph 0.00 in   Overcast